Regional Weather Roundup
Issued by NWS

Home | Current Version | Previous Version | Graphics & Text | Print | Product List | Glossary On
Versions: 1 2 3 4 5 6 7 8 9 10 11 12 13 14 15 16 17 18 19 20 21 22 23 24 25 26 27 28 29 30 31 32 33 34 35 36 37 38 39 40 41 42 43 44 45 46 47 48 49 50
000
ASUS45 KABQ 240001
RWRNM
NEW MEXICO REGIONAL WEATHER ROUNDUP
NATIONAL WEATHER SERVICE ALBUQUERQUE NM
600 PM MDT SAT JUL 23 2016

NOTE: "FAIR" MEANS FEW OR NO CLOUDS BELOW 12,000 FEET AGL WITH NO
       SIGNIFICANT WEATHER OR OBSTRUCTIONS TO VISION.

      THIS PRODUCT IS RELEASED AS TWO VERSIONS.  ONE VERSION NEAR
      THE TOP OF THE HOUR CONTAINING PRELIMINARY DATA FROM ALBUQUERQUE
      AND OTHER STATIONS.  A FINAL VERSION WITH ADDITIONAL DATA IS
      ISSUED ABOUT 10 MINUTES AFTER THE HOUR.

NMZ501-503-504-510>518-240100-
NORTHWEST PLATEAU/NORTHCENTRAL MOUNTAINS

CITY           SKY/WX    TMP DP  RH WIND       PRES   REMARKS
FARMINGTON     FAIR      96  37  12 W17       30.04F
6HR MIN TEMP:  86; 6HR MAX TEMP:  97;

LOS ALAMOS       N/A    N/A N/A N/A NW5       30.18F
SANTA FE       FAIR      90  41  18 N13       30.09F THUNDER
6HR MIN TEMP:  89; 6HR MAX TEMP: 100; 6HR PCP: TRACE;

TAOS           FAIR      90  37  15 N12       30.20S
ANGEL FIRE     FAIR      78  42  27 E10       30.34R

$$
NMZ402-403-502-505>509-240100-
WESTCENTRAL MOUNTAINS/SOUTHWEST MOUNTAINS

CITY           SKY/WX    TMP DP  RH WIND       PRES   REMARKS
GALLUP         FAIR      92  43  18 N15G22    30.16S
6HR MIN TEMP:  89; 6HR MAX TEMP:  95;

GRANTS         FAIR      92  37  14 NW8       30.15F
SILVER CITY    FAIR      83  49  30 N16       30.08F

$$
NMZ407-409-411-412-240100-
SOUTHERN DESERTS

CITY           SKY/WX    TMP DP  RH WIND       PRES   REMARKS
LORDSBURG      FAIR     100  45  15 W12       29.96F HX  96
DEMING         FAIR      98  48  18 N16G23    29.94F
6HR MIN TEMP:  95; 6HR MAX TEMP: 105;

LAS CRUCES     FAIR     101  38  11 SE5       29.96F HX  96
ALAMOGORDO     FAIR     102  39  11 S10G17    29.93F HX  97
T OR C         FAIR      96  44  16 W23       29.98S
6HR MIN TEMP:  93; 6HR MAX TEMP: 102;


$$
NMZ519>523-240100-
CENTRAL VALLEYS/CENTRAL HIGHLANDS

CITY           SKY/WX    TMP DP  RH WIND       PRES   REMARKS
ALBUQUERQUE    PTSUNNY   99  38  12 W3        30.01F
6HR MIN TEMP:  91; 6HR MAX TEMP: 100;

DOUBLE EAGLE   PTSUNNY   97  43  15 NW9G20    30.07F
MORIARTY ARPT  FAIR      94  33  11 S9        30.10F
6HR MIN TEMP:  91; 6HR MAX TEMP:  99;

CLINES CORNERS FAIR      88  39  17 VRB5      30.19F
6HR MIN TEMP:  81; 6HR MAX TEMP:  94; 6HR PCP: TRACE;

BELEN          FAIR      99  38  12 E8        30.00F
6HR MIN TEMP:  90; 6HR MAX TEMP: 101;

SOCORRO        FAIR      97  38  13 S6        29.97F
6HR MIN TEMP:  92; 6HR MAX TEMP: 103;


$$
NMZ524>526-539-540-240100-
SOUTHCENTRAL MOUNTAINS

CITY           SKY/WX    TMP DP  RH WIND       PRES   REMARKS
RUIDOSO        NOT AVBL

$$
NMZ527>531-240100-
NORTHEAST HIGHLANDS/NORTHEAST PLAINS

CITY           SKY/WX    TMP DP  RH WIND       PRES   REMARKS
LAS VEGAS      FAIR      83  45  26 SE20G28   30.17R
6HR MIN TEMP:  79; 6HR MAX TEMP:  95; 6HR PCP: TRACE;

RATON          FAIR      84  47  27 S5        30.14F
6HR MIN TEMP:  76; 6HR MAX TEMP:  94; 6HR PCP:  0.04;

CLAYTON        PTSUNNY   77  62  59 W6        30.04S THUNDER
6HR MIN TEMP:  73; 6HR MAX TEMP: 101; 6HR PCP:  0.03;


$$
NMZ532>537-240100-
EASTCENTRAL PLAINS

CITY           SKY/WX    TMP DP  RH WIND       PRES   REMARKS
TUCUMCARI      FAIR     103  38  10 S15G24    29.92S HX  97
6HR MIN TEMP:  99; 6HR MAX TEMP: 106;

CANNON AFB     FAIR      97  45  16 SE13G24   29.98F
6HR MIN TEMP:  93; 6HR MAX TEMP: 100;

CLOVIS AIRPORT FAIR      97  45  16 S8        30.00F

$$
NMZ028-029-538-240100-
SOUTHEAST PLAINS

CITY           SKY/WX    TMP DP  RH WIND       PRES   REMARKS
ROSWELL        FAIR     102  38  11 SE10      29.91F HX  96
6HR MIN TEMP:  96; 6HR MAX TEMP: 103;

ARTESIA        FAIR     100  41  13 SE15      29.91F HX  96
CARLSBAD       PTSUNNY  102  36  10 SE9       29.88F HX  96
6HR MIN TEMP:  94; 6HR MAX TEMP: 103;

HOBBS          SUNNY     95  45  17 SE12G17   29.96F


$$



USA.gov is the U.S. government's official web portal to all federal, state and local government web resources and services.